Pagrindinis puslapis
METAR-TAF:

METAR-TAF

Oro uostai :

Savonlinna, Suomija

platuma: 61-57N, ilguma: 028-57E, Aukštis: 95 m

Dabartinis oras

Ataskaita buvo paskelbta 32 minutes, ne 04:50 UTC
Vėjas 5 kt iš Šiaurės/Šiaurės Vakarų, svyruoja nuo Vakarų ir Šiaurės
Temperatūra 11°C
Drėgmė 47%
Slėgis 1024 hPa
Matomumas 10 km arba daugiau
nėra debesų žemiau 1500 m ir nėra kamuolinių lietaus debesų

METAR: EFSA 290450Z AUTO 33005KT 280V360 CAVOK 11/00 Q1024

Laikas: 08:22 (05:22 UTC)


TAF: trūkstamas

Orai ataskaitas ir orų prognozės (METAR, TAF).

turimą stotys yra geltonos ir raudonos taškus žemėlapyje.

Perkelti pele per norėdami pamatyti stoties vardą.

Tada spustelėkite, norėdami matyti oro stebėjimo ir prognozės.

Norėdami pakeisti žemėlapį: spustelėkite ant žalios mygtukų su juodo kryžiaus žemyn,; žalią mygtuką su brūkšneliu, jei norite nutolinti; arba žalių rodyklių gretimoms žemėlapius.


METAR-TAF: